sat.trackr.live / text

‹ back to catalog

STARLINK-30247

NORAD 57644 · 2023-122N

PAYLOAD ACTIVE UNKNOWN

§ Identity

Operator
Country
US
Launch date
2023-08-17
Launch site
AFETR
Launch vehicle
Mass (kg)
RCS (m²)

Purposes: comms

External: N2YO · Heavens-Above · Gunter

§ Orbital elements

Epoch: 2026-09-20T04:12:21.019392Z

Period
94.27 min
Inclination
43.0025°
Eccentricity
0.0001287
Mean motion
15.27575612 rev/d
Perigee alt
482.2 km
Apogee alt
483.9 km
Semi-major
6,861.2 km
B*
6.5559e-6
RAAN
73.9336°
Arg perigee
262.7457°
Mean anomaly
97.3249°
Rev number
17,195

§ Raw data

STARLINK-302471 57644U 23122N   26263.17524328 -.00000082  00000+0  65559-5 0  99922 57644  43.0025  73.9336 0001287 262.7457  97.3249 15.27575612171952

JSON: /api/v1/satellites/57644 · /tle

For live sub-satellite position, see the globe view (requires WebGL).

§ Visibility from observer

Set your observer location to see the next 7 days of passes ≥ 10°. The values pass through the URL so the page stays shareable.

No JS? Fill the form by hand. The geolocation button needs JavaScript.